User: anonymous   Login
Location: Caltech
(34.1382°N, 118.1253°W)
Time: 00:32:51
(UTC-07:00)
Language:

Iridium 91 - Orbit

View from above orbital plane
View from above orbital plane
View from above satellite
View from above satellite

Ground track
Ground track

The orbit data is extracted from the following two-line orbital elements,

1 27372U 02005A   17290.41401605 +.00000006 +00000-0 -49156-5 0  9995
2 27372 086.3978 236.0521 0002494 073.5342 043.0590 14.34215150829091
Epoch (UTC): 17 October 2017 09:56:10
Eccentricity: 0.0002494
inclination: 86.3978°
perigee height: 776 km
apogee height: 779 km
right ascension of ascending node: 236.0521°
argument of perigee: 73.5342°
revolutions per day: 14.34215150
mean anomaly at epoch: 43.0590°
orbit number at epoch: 82909

The dashed part of the orbit path shows where the satellite is in the earth's shadow,  

DLR